Time,TemperatureF,DewpointF,PressureIn,WindDirection,WindDirectionDegrees,WindSpeedMPH,WindSpeedGustMPH,Humidity,HourlyPrecipIn,Conditions,Clouds,dailyrainin,SoftwareType,DateUTC
2013-04-05 00:00:00,43.5,23.5,30.00,East,89,0.0,8.0,45,0.00,,,0.00,Wunderground v.1.13,2013-04-05 04:00:00,
2013-04-05 00:05:00,43.3,23.9,30.00,East,89,0.0,8.0,46,0.00,,,0.00,Wunderground v.1.13,2013-04-05 04:05:00,
2013-04-05 00:10:00,43.2,23.8,30.00,East,89,0.0,8.0,46,0.00,,,0.00,Wunderground v.1.13,2013-04-05 04:10:00,
2013-04-05 00:15:00,42.9,23.5,30.00,East,89,0.0,8.0,46,0.00,,,0.00,Wunderground v.1.13,2013-04-05 04:15:00,
2013-04-05 00:20:00,42.8,23.4,30.00,East,89,0.0,8.0,46,0.00,,,0.00,Wunderground v.1.13,2013-04-05 04:20:00,
2013-04-05 00:25:00,42.6,23.8,30.00,East,89,0.0,8.0,47,0.00,,,0.00,Wunderground v.1.13,2013-04-05 04:25:00,
2013-04-05 00:30:00,42.3,24.0,30.00,East,89,0.0,8.0,48,0.00,,,0.00,Wunderground v.1.13,2013-04-05 04:30:00,
2013-04-05 00:35:00,42.1,24.8,30.00,East,89,0.0,8.0,50,0.00,,,0.00,Wunderground v.1.13,2013-04-05 04:35:00,
2013-04-05 00:40:00,41.9,24.1,30.00,East,89,0.0,8.0,49,0.00,,,0.00,Wunderground v.1.13,2013-04-05 04:40:00,
2013-04-05 00:45:00,41.8,24.0,29.99,East,89,0.0,8.0,49,0.00,,,0.00,Wunderground v.1.13,2013-04-05 04:45:00,
2013-04-05 00:50:00,41.6,24.3,29.99,East,89,0.0,8.0,50,0.00,,,0.00,Wunderground v.1.13,2013-04-05 04:50:00,
2013-04-05 00:55:00,41.5,24.2,29.99,East,89,0.0,8.0,50,0.00,,,0.00,Wunderground v.1.13,2013-04-05 04:55:00,
2013-04-05 01:05:00,41.2,24.4,29.99,East,89,0.0,8.0,51,0.00,,,0.00,Wunderground v.1.13,2013-04-05 05:05:00,
2013-04-05 01:10:00,41.1,24.3,29.99,East,89,0.0,8.0,51,0.00,,,0.00,Wunderground v.1.13,2013-04-05 05:10:00,
2013-04-05 01:15:00,40.9,24.1,29.99,East,89,0.0,8.0,51,0.00,,,0.00,Wunderground v.1.13,2013-04-05 05:15:00,
2013-04-05 01:20:00,40.8,24.5,29.99,East,89,0.0,8.0,52,0.00,,,0.00,Wunderground v.1.13,2013-04-05 05:20:00,
2013-04-05 01:25:00,40.6,24.3,29.99,East,89,0.0,8.0,52,0.00,,,0.00,Wunderground v.1.13,2013-04-05 05:25:00,
2013-04-05 01:30:00,40.5,24.7,29.99,East,89,0.0,8.0,53,0.00,,,0.00,Wunderground v.1.13,2013-04-05 05:30:00,
2013-04-05 01:40:00,40.2,25.3,29.99,East,89,0.0,8.0,55,0.00,,,0.00,Wunderground v.1.13,2013-04-05 05:40:00,
2013-04-05 01:45:00,40.1,25.2,29.99,East,89,0.0,8.0,55,0.00,,,0.00,Wunderground v.1.13,2013-04-05 05:45:00,
2013-04-05 01:50:00,39.8,25.4,29.99,East,89,0.0,8.0,56,0.00,,,0.00,Wunderground v.1.13,2013-04-05 05:50:00,
2013-04-05 01:55:00,39.6,25.2,29.99,East,89,0.0,8.0,56,0.00,,,0.00,Wunderground v.1.13,2013-04-05 05:55:00,
2013-04-05 02:00:00,39.3,25.3,29.99,East,89,0.0,8.0,57,0.00,,,0.00,Wunderground v.1.13,2013-04-05 06:00:00,
2013-04-05 02:05:00,39.2,25.2,29.99,East,89,0.0,8.0,57,0.00,,,0.00,Wunderground v.1.13,2013-04-05 06:05:00,
2013-04-05 02:15:00,38.8,25.3,29.99,East,89,0.0,8.0,58,0.00,,,0.00,Wunderground v.1.13,2013-04-05 06:15:00,
2013-04-05 02:20:00,38.6,25.1,29.99,East,89,0.0,8.0,58,0.00,,,0.00,Wunderground v.1.13,2013-04-05 06:20:00,
2013-04-05 02:30:00,38.2,25.1,29.99,East,89,0.0,8.0,59,0.00,,,0.00,Wunderground v.1.13,2013-04-05 06:30:00,
2013-04-05 02:35:00,38.0,25.3,29.99,East,89,0.0,8.0,60,0.00,,,0.00,Wunderground v.1.13,2013-04-05 06:35:00,
2013-04-05 02:40:00,37.9,25.2,29.99,East,89,0.0,8.0,60,0.00,,,0.00,Wunderground v.1.13,2013-04-05 06:40:00,
2013-04-05 02:45:00,37.8,25.5,29.99,East,89,0.0,8.0,61,0.00,,,0.00,Wunderground v.1.13,2013-04-05 06:45:00,
2013-04-05 02:50:00,37.6,25.4,29.99,East,89,0.0,8.0,61,0.00,,,0.00,Wunderground v.1.13,2013-04-05 06:50:00,
2013-04-05 02:55:00,37.5,25.7,29.99,East,89,0.0,8.0,62,0.00,,,0.00,Wunderground v.1.13,2013-04-05 06:55:00,
2013-04-05 03:00:00,37.5,25.7,29.99,East,89,0.0,8.0,62,0.00,,,0.00,Wunderground v.1.13,2013-04-05 07:00:00,
2013-04-05 03:05:00,37.3,25.5,29.99,East,89,0.0,8.0,62,0.00,,,0.00,Wunderground v.1.13,2013-04-05 07:05:00,
2013-04-05 03:10:00,37.2,25.4,29.99,East,89,0.0,8.0,62,0.00,,,0.00,Wunderground v.1.13,2013-04-05 07:10:00,
2013-04-05 03:15:00,37.0,25.2,29.98,East,89,0.0,8.0,62,0.00,,,0.00,Wunderground v.1.13,2013-04-05 07:15:00,
2013-04-05 03:20:00,36.9,25.5,29.98,East,89,0.0,8.0,63,0.00,,,0.00,Wunderground v.1.13,2013-04-05 07:20:00,
2013-04-05 03:25:00,36.8,25.4,29.98,East,89,0.0,8.0,63,0.00,,,0.00,Wunderground v.1.13,2013-04-05 07:25:00,
2013-04-05 03:30:00,36.6,25.6,29.98,East,89,0.0,8.0,64,0.00,,,0.00,Wunderground v.1.13,2013-04-05 07:30:00,
2013-04-05 03:40:00,36.3,25.7,29.98,East,89,0.0,8.0,65,0.00,,,0.00,Wunderground v.1.13,2013-04-05 07:40:00,
2013-04-05 03:45:00,36.2,25.6,29.99,East,89,0.0,8.0,65,0.00,,,0.00,Wunderground v.1.13,2013-04-05 07:45:00,
2013-04-05 03:50:00,36.0,25.4,29.99,East,89,0.0,8.0,65,0.00,,,0.00,Wunderground v.1.13,2013-04-05 07:50:00,
2013-04-05 04:00:00,35.9,25.6,29.99,East,89,0.0,8.0,66,0.00,,,0.00,Wunderground v.1.13,2013-04-05 08:00:00,
2013-04-05 04:05:00,35.8,25.5,29.99,East,89,0.0,8.0,66,0.00,,,0.00,Wunderground v.1.13,2013-04-05 08:05:00,
2013-04-05 04:10:00,35.6,25.4,29.99,East,89,0.0,8.0,66,0.00,,,0.00,Wunderground v.1.13,2013-04-05 08:10:00,
2013-04-05 04:15:00,35.6,25.4,29.99,East,89,0.0,8.0,66,0.00,,,0.00,Wunderground v.1.13,2013-04-05 08:15:00,
2013-04-05 04:20:00,35.5,25.6,29.99,East,89,0.0,8.0,67,0.00,,,0.00,Wunderground v.1.13,2013-04-05 08:20:00,
2013-04-05 04:30:00,35.3,25.4,30.00,East,89,0.0,8.0,67,0.00,,,0.00,Wunderground v.1.13,2013-04-05 08:30:00,
2013-04-05 04:35:00,35.3,25.8,30.00,East,89,0.0,8.0,68,0.00,,,0.00,Wunderground v.1.13,2013-04-05 08:35:00,
2013-04-05 04:40:00,35.3,25.8,30.00,East,89,0.0,8.0,68,0.00,,,0.00,Wunderground v.1.13,2013-04-05 08:40:00,
2013-04-05 04:45:00,35.2,25.7,30.00,East,89,0.0,8.0,68,0.00,,,0.00,Wunderground v.1.13,2013-04-05 08:45:00,
2013-04-05 04:50:00,35.2,26.0,30.00,East,89,0.0,8.0,69,0.00,,,0.00,Wunderground v.1.13,2013-04-05 08:50:00,
2013-04-05 04:55:00,35.0,25.9,30.00,East,89,0.0,8.0,69,0.00,,,0.00,Wunderground v.1.13,2013-04-05 08:55:00,
2013-04-05 05:05:00,34.7,25.6,30.00,East,89,0.0,8.0,69,0.00,,,0.00,Wunderground v.1.13,2013-04-05 09:05:00,
2013-04-05 05:10:00,34.7,25.6,30.00,East,89,0.0,8.0,69,0.00,,,0.00,Wunderground v.1.13,2013-04-05 09:10:00,
2013-04-05 05:15:00,34.6,25.8,30.01,East,89,0.0,8.0,70,0.00,,,0.00,Wunderground v.1.13,2013-04-05 09:15:00,
2013-04-05 05:20:00,34.4,25.6,30.01,East,89,0.0,8.0,70,0.00,,,0.00,Wunderground v.1.13,2013-04-05 09:20:00,
2013-04-05 05:25:00,34.4,26.0,30.01,East,89,0.0,8.0,71,0.00,,,0.00,Wunderground v.1.13,2013-04-05 09:25:00,
2013-04-05 05:30:00,34.4,26.0,30.02,East,89,0.0,8.0,71,0.00,,,0.00,Wunderground v.1.13,2013-04-05 09:30:00,
2013-04-05 05:35:00,34.3,25.9,30.02,East,89,0.0,8.0,71,0.00,,,0.00,Wunderground v.1.13,2013-04-05 09:35:00,
2013-04-05 05:40:00,34.3,26.2,30.02,East,89,0.0,8.0,72,0.00,,,0.00,Wunderground v.1.13,2013-04-05 09:40:00,
2013-04-05 05:45:00,34.1,26.0,30.02,East,89,0.0,8.0,72,0.00,,,0.00,Wunderground v.1.13,2013-04-05 09:45:00,
2013-04-05 05:50:00,34.1,26.0,30.02,East,89,0.0,8.0,72,0.00,,,0.00,Wunderground v.1.13,2013-04-05 09:50:00,
2013-04-05 05:55:00,34.0,25.9,30.02,East,89,0.0,8.0,72,0.00,,,0.00,Wunderground v.1.13,2013-04-05 09:55:00,
2013-04-05 06:05:00,33.7,25.6,30.02,East,89,0.0,8.0,72,0.00,,,0.00,Wunderground v.1.13,2013-04-05 10:05:00,
2013-04-05 06:10:00,33.7,25.6,30.02,East,89,0.0,8.0,72,0.00,,,0.00,Wunderground v.1.13,2013-04-05 10:10:00,
2013-04-05 06:15:00,33.7,25.6,30.03,East,89,0.0,8.0,72,0.00,,,0.00,Wunderground v.1.13,2013-04-05 10:15:00,
2013-04-05 06:20:00,33.8,25.7,30.03,East,89,0.0,8.0,72,0.00,,,0.00,Wunderground v.1.13,2013-04-05 10:20:00,
2013-04-05 06:25:00,33.8,25.4,30.03,East,89,0.0,8.0,71,0.00,,,0.00,Wunderground v.1.13,2013-04-05 10:25:00,
2013-04-05 06:35:00,33.7,25.6,30.03,East,89,0.0,8.0,72,0.00,,,0.00,Wunderground v.1.13,2013-04-05 10:35:00,
2013-04-05 06:40:00,33.7,25.6,30.03,East,89,0.0,8.0,72,0.00,,,0.00,Wunderground v.1.13,2013-04-05 10:40:00,
2013-04-05 06:45:00,33.5,25.4,30.03,East,89,0.0,8.0,72,0.00,,,0.00,Wunderground v.1.13,2013-04-05 10:45:00,
2013-04-05 06:50:00,33.5,25.4,30.03,East,89,0.0,8.0,72,0.00,,,0.00,Wunderground v.1.13,2013-04-05 10:50:00,
2013-04-05 06:55:00,33.5,25.8,30.03,East,89,0.0,8.0,73,0.00,,,0.00,Wunderground v.1.13,2013-04-05 10:55:00,
2013-04-05 07:00:00,33.5,25.8,30.03,East,89,0.0,8.0,73,0.00,,,0.00,Wunderground v.1.13,2013-04-05 11:00:00,
2013-04-05 07:10:00,33.5,25.8,30.03,East,89,0.0,8.0,73,0.00,,,0.00,Wunderground v.1.13,2013-04-05 11:10:00,
2013-04-05 07:15:00,33.5,25.8,30.04,East,89,0.0,8.0,73,0.00,,,0.00,Wunderground v.1.13,2013-04-05 11:15:00,
2013-04-05 07:20:00,33.7,26.0,30.04,East,89,0.0,8.0,73,0.00,,,0.00,Wunderground v.1.13,2013-04-05 11:20:00,
2013-04-05 07:25:00,33.7,26.0,30.04,East,89,0.0,8.0,73,0.00,,,0.00,Wunderground v.1.13,2013-04-05 11:25:00,
2013-04-05 07:30:00,33.7,25.6,30.04,East,89,0.0,8.0,72,0.00,,,0.00,Wunderground v.1.13,2013-04-05 11:30:00,
2013-04-05 07:35:00,33.7,25.6,30.04,East,89,0.0,8.0,72,0.00,,,0.00,Wunderground v.1.13,2013-04-05 11:35:00,
2013-04-05 07:45:00,33.7,25.6,30.04,East,89,0.0,8.0,72,0.00,,,0.00,Wunderground v.1.13,2013-04-05 11:45:00,
2013-04-05 07:50:00,33.7,25.6,30.04,East,89,0.0,8.0,72,0.00,,,0.00,Wunderground v.1.13,2013-04-05 11:50:00,
2013-04-05 07:55:00,33.8,25.7,30.04,East,89,0.0,8.0,72,0.00,,,0.00,Wunderground v.1.13,2013-04-05 11:55:00,
2013-04-05 08:00:00,33.8,25.7,30.05,East,89,0.0,8.0,72,0.00,,,0.00,Wunderground v.1.13,2013-04-05 12:00:00,
2013-04-05 08:05:00,34.0,25.9,30.05,East,89,0.0,8.0,72,0.00,,,0.00,Wunderground v.1.13,2013-04-05 12:05:00,
2013-04-05 08:10:00,34.1,26.0,30.05,East,89,0.0,8.0,72,0.00,,,0.00,Wunderground v.1.13,2013-04-05 12:10:00,
2013-04-05 08:15:00,34.4,26.3,30.06,East,89,0.0,8.0,72,0.00,,,0.00,Wunderground v.1.13,2013-04-05 12:15:00,
2013-04-05 08:20:00,34.7,26.3,30.06,East,89,0.0,8.0,71,0.00,,,0.00,Wunderground v.1.13,2013-04-05 12:20:00,
2013-04-05 08:25:00,35.0,26.5,30.06,East,89,0.0,8.0,71,0.00,,,0.00,Wunderground v.1.13,2013-04-05 12:25:00,
2013-04-05 08:30:00,35.3,26.8,30.06,East,89,0.0,8.0,71,0.00,,,0.00,Wunderground v.1.13,2013-04-05 12:30:00,
2013-04-05 08:35:00,35.8,27.0,30.06,East,89,0.0,8.0,70,0.00,,,0.00,Wunderground v.1.13,2013-04-05 12:35:00,
2013-04-05 08:40:00,36.2,27.4,30.06,East,89,0.0,8.0,70,0.00,,,0.00,Wunderground v.1.13,2013-04-05 12:40:00,
2013-04-05 08:50:00,37.0,27.1,30.06,East,89,0.0,8.0,67,0.00,,,0.00,Wunderground v.1.13,2013-04-05 12:50:00,
2013-04-05 08:55:00,37.5,26.8,30.06,East,89,0.0,8.0,65,0.00,,,0.00,Wunderground v.1.13,2013-04-05 12:55:00,
2013-04-05 09:00:00,37.9,26.8,30.06,East,89,0.0,8.0,64,0.00,,,0.00,Wunderground v.1.13,2013-04-05 13:00:00,
2013-04-05 09:05:00,38.3,27.2,30.06,East,89,0.0,8.0,64,0.00,,,0.00,Wunderground v.1.13,2013-04-05 13:05:00,
2013-04-05 09:10:00,38.9,27.4,30.06,East,89,0.0,8.0,63,0.00,,,0.00,Wunderground v.1.13,2013-04-05 13:10:00,
2013-04-05 09:15:00,39.5,27.5,30.06,East,89,0.0,8.0,62,0.00,,,0.00,Wunderground v.1.13,2013-04-05 13:15:00,
2013-04-05 09:20:00,40.2,28.2,30.06,East,89,0.0,8.0,62,0.00,,,0.00,Wunderground v.1.13,2013-04-05 13:20:00,
2013-04-05 09:25:00,40.8,28.0,30.06,East,89,0.0,8.0,60,0.00,,,0.00,Wunderground v.1.13,2013-04-05 13:25:00,
2013-04-05 09:30:00,41.3,28.0,30.06,East,89,0.0,8.0,59,0.00,,,0.00,Wunderground v.1.13,2013-04-05 13:30:00,
2013-04-05 09:35:00,41.9,29.0,30.06,East,89,0.0,8.0,60,0.00,,,0.00,Wunderground v.1.13,2013-04-05 13:35:00,
2013-04-05 09:40:00,42.5,30.0,30.06,East,89,0.0,8.0,61,0.00,,,0.00,Wunderground v.1.13,2013-04-05 13:40:00,
2013-04-05 09:45:00,42.9,30.0,30.06,East,89,0.0,8.0,60,0.00,,,0.00,Wunderground v.1.13,2013-04-05 13:45:00,
2013-04-05 09:55:00,43.8,28.2,30.06,East,89,0.0,8.0,54,0.00,,,0.00,Wunderground v.1.13,2013-04-05 13:55:00,
2013-04-05 10:00:00,44.3,28.7,30.06,East,89,0.0,8.0,54,0.00,,,0.00,Wunderground v.1.13,2013-04-05 14:00:00,
2013-04-05 10:05:00,44.9,28.3,30.06,East,89,0.0,8.0,52,0.00,,,0.00,Wunderground v.1.13,2013-04-05 14:05:00,
2013-04-05 10:10:00,45.8,29.2,30.06,East,89,0.0,8.0,52,0.00,,,0.00,Wunderground v.1.13,2013-04-05 14:10:00,
2013-04-05 10:15:00,46.5,27.8,30.06,East,89,0.0,8.0,48,0.00,,,0.00,Wunderground v.1.13,2013-04-05 14:15:00,
2013-04-05 10:20:00,47.4,25.4,30.06,East,89,0.0,8.0,42,0.00,,,0.00,Wunderground v.1.13,2013-04-05 14:20:00,
2013-04-05 10:25:00,48.3,25.7,30.06,East,89,0.0,8.0,41,0.00,,,0.00,Wunderground v.1.13,2013-04-05 14:25:00,
2013-04-05 10:30:00,49.4,24.8,30.05,East,89,0.0,8.0,38,0.00,,,0.00,Wunderground v.1.13,2013-04-05 14:30:00,
2013-04-05 10:35:00,50.4,24.4,30.05,East,89,0.0,8.0,36,0.00,,,0.00,Wunderground v.1.13,2013-04-05 14:35:00,
2013-04-05 10:45:00,52.2,23.9,30.05,SE,137,0.0,8.0,33,0.00,,,0.00,Wunderground v.1.13,2013-04-05 14:45:00,
2013-04-05 10:50:00,52.9,23.0,30.05,SE,137,0.0,8.0,31,0.00,,,0.00,Wunderground v.1.13,2013-04-05 14:50:00,
2013-04-05 11:00:00,54.1,23.3,30.05,SE,137,0.0,8.0,30,0.00,,,0.00,Wunderground v.1.13,2013-04-05 15:00:00,
2013-04-05 11:05:00,54.7,22.2,30.05,SE,133,0.0,8.0,28,0.00,,,0.00,Wunderground v.1.13,2013-04-05 15:05:00,
2013-04-05 11:10:00,55.4,23.6,30.05,SE,131,0.0,8.0,29,0.00,,,0.00,Wunderground v.1.13,2013-04-05 15:10:00,
2013-04-05 11:15:00,56.3,24.4,30.05,SE,140,0.0,8.0,29,0.00,,,0.00,Wunderground v.1.13,2013-04-05 15:15:00,
2013-04-05 11:25:00,57.5,23.7,30.05,SE,127,1.0,1.0,27,0.00,,,0.00,Wunderground v.1.13,2013-04-05 15:25:00,
2013-04-05 11:35:00,58.1,24.3,30.05,ESE,112,0.0,8.0,27,0.00,,,0.00,Wunderground v.1.13,2013-04-05 15:35:00,
2013-04-05 11:40:00,58.4,25.4,30.05,SSE,155,0.0,8.0,28,0.00,,,0.00,Wunderground v.1.13,2013-04-05 15:40:00,
2013-04-05 11:45:00,58.7,23.9,30.04,ESE,103,1.0,8.0,26,0.00,,,0.00,Wunderground v.1.13,2013-04-05 15:45:00,
2013-04-05 11:55:00,59.5,23.6,30.04,ESE,116,1.0,1.0,25,0.00,,,0.00,Wunderground v.1.13,2013-04-05 15:55:00,
2013-04-05 12:05:00,59.6,24.6,30.04,SSE,158,1.0,1.0,26,0.00,,,0.00,Wunderground v.1.13,2013-04-05 16:05:00,
2013-04-05 12:10:00,60.1,25.1,30.04,SE,127,1.0,8.0,26,0.00,,,0.00,Wunderground v.1.13,2013-04-05 16:10:00,
2013-04-05 12:15:00,60.1,25.1,30.04,ESE,116,1.0,1.0,26,0.00,,,0.00,Wunderground v.1.13,2013-04-05 16:15:00,
2013-04-05 12:20:00,60.4,25.3,30.04,ESE,114,1.0,1.0,26,0.00,,,0.00,Wunderground v.1.13,2013-04-05 16:20:00,
2013-04-05 12:25:00,60.9,25.7,30.04,ESE,116,0.0,8.0,26,0.00,,,0.00,Wunderground v.1.13,2013-04-05 16:25:00,
2013-04-05 12:30:00,61.3,26.1,30.04,West,260,1.0,1.0,26,0.00,,,0.00,Wunderground v.1.13,2013-04-05 16:30:00,
2013-04-05 12:35:00,62.6,28.1,30.04,South,188,1.0,1.0,27,0.00,,,0.00,Wunderground v.1.13,2013-04-05 16:35:00,
2013-04-05 12:45:00,63.9,30.1,30.04,ESE,121,1.0,8.0,28,0.00,,,0.00,Wunderground v.1.13,2013-04-05 16:45:00,
2013-04-05 12:50:00,65.0,29.2,30.04,NE,51,1.0,8.0,26,0.00,,,0.00,Wunderground v.1.13,2013-04-05 16:50:00,
2013-04-05 12:55:00,66.0,30.1,30.04,WSW,250,1.0,1.0,26,0.00,,,0.00,Wunderground v.1.13,2013-04-05 16:55:00,
2013-04-05 13:00:00,66.0,30.1,30.04,SSW,213,2.0,2.0,26,0.00,,,0.00,Wunderground v.1.13,2013-04-05 17:00:00,
2013-04-05 13:05:00,66.4,29.5,30.04,SSE,155,2.0,2.0,25,0.00,,,0.00,Wunderground v.1.13,2013-04-05 17:05:00,
2013-04-05 13:15:00,67.1,30.1,30.04,SE,141,1.0,8.0,25,0.00,,,0.00,Wunderground v.1.13,2013-04-05 17:15:00,
2013-04-05 13:20:00,67.1,30.1,30.04,SSE,161,1.0,8.0,25,0.00,,,0.00,Wunderground v.1.13,2013-04-05 17:20:00,
2013-04-05 13:25:00,67.1,32.0,30.04,ESE,123,1.0,8.0,27,0.00,,,0.00,Wunderground v.1.13,2013-04-05 17:25:00,
2013-04-05 13:30:00,67.1,31.0,30.03,SE,138,1.0,8.0,26,0.00,,,0.00,Wunderground v.1.13,2013-04-05 17:30:00,
2013-04-05 13:35:00,67.4,30.3,30.03,ESE,114,2.0,8.0,25,0.00,,,0.00,Wunderground v.1.13,2013-04-05 17:35:00,
2013-04-05 13:40:00,67.8,30.7,30.03,West,264,1.0,8.0,25,0.00,,,0.00,Wunderground v.1.13,2013-04-05 17:40:00,
2013-04-05 13:50:00,66.8,30.8,30.03,SE,140,3.0,3.0,26,0.00,,,0.00,Wunderground v.1.13,2013-04-05 17:50:00,
2013-04-05 13:55:00,67.4,30.3,30.03,West,268,2.0,2.0,25,0.00,,,0.00,Wunderground v.1.13,2013-04-05 17:55:00,
2013-04-05 14:00:00,67.1,29.1,30.02,SE,137,2.0,2.0,24,0.00,,,0.00,Wunderground v.1.13,2013-04-05 18:00:00,
2013-04-05 14:10:00,67.4,31.3,30.02,WSW,258,2.0,8.0,26,0.00,,,0.00,Wunderground v.1.13,2013-04-05 18:10:00,
2013-04-05 14:15:00,67.8,29.7,30.02,East,86,2.0,8.0,24,0.00,,,0.00,Wunderground v.1.13,2013-04-05 18:15:00,
2013-04-05 14:25:00,68.4,28.0,30.02,SE,143,1.0,8.0,22,0.00,,,0.00,Wunderground v.1.13,2013-04-05 18:25:00,
2013-04-05 14:30:00,68.9,28.5,30.02,ESE,116,2.0,2.0,22,0.00,,,0.00,Wunderground v.1.13,2013-04-05 18:30:00,
2013-04-05 14:35:00,68.9,28.5,30.02,WSW,248,2.0,2.0,22,0.00,,,0.00,Wunderground v.1.13,2013-04-05 18:35:00,
2013-04-05 14:40:00,68.9,29.5,30.02,South,179,2.0,2.0,23,0.00,,,0.00,Wunderground v.1.13,2013-04-05 18:40:00,
2013-04-05 14:45:00,68.9,29.5,30.02,NNW,340,2.0,8.0,23,0.00,,,0.00,Wunderground v.1.13,2013-04-05 18:45:00,
2013-04-05 14:55:00,68.4,29.1,30.02,ESE,104,2.0,2.0,23,0.00,,,0.00,Wunderground v.1.13,2013-04-05 18:55:00,
2013-04-05 15:00:00,68.9,27.3,30.02,SE,136,2.0,8.0,21,0.00,,,0.00,Wunderground v.1.13,2013-04-05 19:00:00,
2013-04-05 15:05:00,69.3,27.7,30.02,South,174,1.0,1.0,21,0.00,,,0.00,Wunderground v.1.13,2013-04-05 19:05:00,
2013-04-05 15:10:00,68.8,23.5,30.02,West,265,2.0,2.0,18,0.00,,,0.00,Wunderground v.1.13,2013-04-05 19:10:00,
2013-04-05 15:15:00,67.9,24.1,30.02,WNW,302,3.0,3.0,19,0.00,,,0.00,Wunderground v.1.13,2013-04-05 19:15:00,
2013-04-05 15:20:00,68.8,24.8,30.02,NNW,333,2.0,8.0,19,0.00,,,0.00,Wunderground v.1.13,2013-04-05 19:20:00,
2013-04-05 15:25:00,69.4,24.0,30.02,SSE,150,2.0,2.0,18,0.00,,,0.00,Wunderground v.1.13,2013-04-05 19:25:00,
2013-04-05 15:30:00,69.8,21.5,30.02,SE,137,2.0,2.0,16,0.00,,,0.00,Wunderground v.1.13,2013-04-05 19:30:00,
2013-04-05 15:35:00,69.8,24.3,30.02,NW,306,1.0,8.0,18,0.00,,,0.00,Wunderground v.1.13,2013-04-05 19:35:00,
2013-04-05 15:40:00,69.1,22.4,30.02,NW,313,2.0,2.0,17,0.00,,,0.00,Wunderground v.1.13,2013-04-05 19:40:00,
2013-04-05 15:45:00,68.9,24.9,30.02,South,188,2.0,8.0,19,0.00,,,0.00,Wunderground v.1.13,2013-04-05 19:45:00,
2013-04-05 15:55:00,67.9,22.8,30.02,West,277,3.0,10.0,18,0.00,,,0.00,Wunderground v.1.13,2013-04-05 19:55:00,
2013-04-05 16:05:00,67.4,22.4,30.02,SE,124,3.0,3.0,18,0.00,,,0.00,Wunderground v.1.13,2013-04-05 20:05:00,
2013-04-05 16:10:00,66.8,21.9,30.02,WNW,296,3.0,3.0,18,0.00,,,0.00,Wunderground v.1.13,2013-04-05 20:10:00,
2013-04-05 16:15:00,66.8,21.9,30.01,WNW,287,3.0,3.0,18,0.00,,,0.00,Wunderground v.1.13,2013-04-05 20:15:00,
2013-04-05 16:20:00,66.9,23.3,30.01,WSW,248,2.0,8.0,19,0.00,,,0.00,Wunderground v.1.13,2013-04-05 20:20:00,
2013-04-05 16:25:00,66.4,24.1,30.01,WNW,289,2.0,8.0,20,0.00,,,0.00,Wunderground v.1.13,2013-04-05 20:25:00,
2013-04-05 16:30:00,66.4,21.6,30.02,NW,318,3.0,3.0,18,0.00,,,0.00,Wunderground v.1.13,2013-04-05 20:30:00,
2013-04-05 16:35:00,67.4,22.4,30.02,WNW,287,2.0,8.0,18,0.00,,,0.00,Wunderground v.1.13,2013-04-05 20:35:00,
2013-04-05 16:40:00,67.1,24.6,30.02,West,272,1.0,8.0,20,0.00,,,0.00,Wunderground v.1.13,2013-04-05 20:40:00,
2013-04-05 16:45:00,66.9,22.0,30.02,SE,144,2.0,8.0,18,0.00,,,0.00,Wunderground v.1.13,2013-04-05 20:45:00,
2013-04-05 16:50:00,67.1,22.1,30.02,WNW,298,2.0,8.0,18,0.00,,,0.00,Wunderground v.1.13,2013-04-05 20:50:00,
2013-04-05 16:55:00,66.0,21.2,30.02,SW,223,3.0,3.0,18,0.00,,,0.00,Wunderground v.1.13,2013-04-05 20:55:00,
2013-04-05 17:05:00,64.8,21.5,30.02,WNW,295,3.0,8.0,19,0.00,,,0.00,Wunderground v.1.13,2013-04-05 21:05:00,
2013-04-05 17:10:00,64.2,22.2,30.02,West,270,4.0,4.0,20,0.00,,,0.00,Wunderground v.1.13,2013-04-05 21:10:00,
2013-04-05 17:15:00,63.9,23.2,30.02,WSW,257,3.0,8.0,21,0.00,,,0.00,Wunderground v.1.13,2013-04-05 21:15:00,
2013-04-05 17:20:00,63.7,23.0,30.02,NW,308,3.0,3.0,21,0.00,,,0.00,Wunderground v.1.13,2013-04-05 21:20:00,
2013-04-05 17:25:00,63.5,22.8,30.02,WSW,254,3.0,8.0,21,0.00,,,0.00,Wunderground v.1.13,2013-04-05 21:25:00,
2013-04-05 17:30:00,63.4,22.7,30.03,NW,312,3.0,3.0,21,0.00,,,0.00,Wunderground v.1.13,2013-04-05 21:30:00,
2013-04-05 17:35:00,63.2,21.4,30.03,West,271,3.0,3.0,20,0.00,,,0.00,Wunderground v.1.13,2013-04-05 21:35:00,
2013-04-05 17:40:00,63.1,21.3,30.03,SW,234,3.0,3.0,20,0.00,,,0.00,Wunderground v.1.13,2013-04-05 21:40:00,
2013-04-05 17:45:00,63.1,20.1,30.03,NNW,336,3.0,3.0,19,0.00,,,0.00,Wunderground v.1.13,2013-04-05 21:45:00,
2013-04-05 17:55:00,62.7,19.8,30.03,SE,126,4.0,4.0,19,0.00,,,0.00,Wunderground v.1.13,2013-04-05 21:55:00,
2013-04-05 18:00:00,63.2,21.4,30.03,NW,313,2.0,2.0,20,0.00,,,0.00,Wunderground v.1.13,2013-04-05 22:00:00,
2013-04-05 18:05:00,63.2,21.4,30.03,NNW,329,2.0,8.0,20,0.00,,,0.00,Wunderground v.1.13,2013-04-05 22:05:00,
2013-04-05 18:10:00,63.4,22.7,30.03,ENE,78,2.0,2.0,21,0.00,,,0.00,Wunderground v.1.13,2013-04-05 22:10:00,
2013-04-05 18:20:00,64.0,20.9,30.04,NNE,24,1.0,8.0,19,0.00,,,0.00,Wunderground v.1.13,2013-04-05 22:20:00,
2013-04-05 18:25:00,63.9,22.0,30.04,NW,308,2.0,2.0,20,0.00,,,0.00,Wunderground v.1.13,2013-04-05 22:25:00,
2013-04-05 18:30:00,63.9,22.0,30.04,WSW,258,2.0,8.0,20,0.00,,,0.00,Wunderground v.1.13,2013-04-05 22:30:00,
2013-04-05 18:35:00,63.4,23.8,30.04,NNW,328,2.0,8.0,22,0.00,,,0.00,Wunderground v.1.13,2013-04-05 22:35:00,
2013-04-05 18:40:00,62.6,20.9,30.04,WNW,301,2.0,8.0,20,0.00,,,0.00,Wunderground v.1.13,2013-04-05 22:40:00,
2013-04-05 18:50:00,61.6,24.4,30.05,West,278,2.0,8.0,24,0.00,,,0.00,Wunderground v.1.13,2013-04-05 22:50:00,
2013-04-05 18:55:00,61.0,25.8,30.05,WNW,299,1.0,8.0,26,0.00,,,0.00,Wunderground v.1.13,2013-04-05 22:55:00,
2013-04-05 19:10:00,60.2,24.2,30.05,NW,306,3.0,3.0,25,0.00,,,0.00,Wunderground v.1.13,2013-04-05 23:10:00,
2013-04-05 19:15:00,59.9,23.0,30.05,SW,233,3.0,3.0,24,0.00,,,0.00,Wunderground v.1.13,2013-04-05 23:15:00,
2013-04-05 19:20:00,59.8,23.9,30.05,SW,223,2.0,2.0,25,0.00,,,0.00,Wunderground v.1.13,2013-04-05 23:20:00,
2013-04-05 19:30:00,59.3,24.4,30.05,WNW,294,2.0,8.0,26,0.00,,,0.00,Wunderground v.1.13,2013-04-05 23:30:00,
2013-04-05 19:35:00,58.9,24.0,30.05,West,260,2.0,2.0,26,0.00,,,0.00,Wunderground v.1.13,2013-04-05 23:35:00,
2013-04-05 19:40:00,58.7,22.9,30.05,West,280,1.0,8.0,25,0.00,,,0.00,Wunderground v.1.13,2013-04-05 23:40:00,
2013-04-05 19:45:00,58.4,22.7,30.06,WSW,253,2.0,8.0,25,0.00,,,0.00,Wunderground v.1.13,2013-04-05 23:45:00,
2013-04-05 19:50:00,58.3,23.5,30.06,SW,223,2.0,8.0,26,0.00,,,0.00,Wunderground v.1.13,2013-04-05 23:50:00,
2013-04-05 20:00:00,57.6,22.9,30.07,WNW,292,2.0,8.0,26,0.00,,,0.00,Wunderground v.1.13,2013-04-06 00:00:00,
2013-04-05 20:05:00,57.3,23.6,30.07,West,267,3.0,3.0,27,0.00,,,0.00,Wunderground v.1.13,2013-04-06 00:05:00,
2013-04-05 20:10:00,57.0,24.2,30.07,SW,224,3.0,3.0,28,0.00,,,0.00,Wunderground v.1.13,2013-04-06 00:10:00,
2013-04-05 20:15:00,56.9,24.1,30.08,West,270,2.0,2.0,28,0.00,,,0.00,Wunderground v.1.13,2013-04-06 00:15:00,
2013-04-05 20:20:00,56.6,23.8,30.08,WNW,288,2.0,8.0,28,0.00,,,0.00,Wunderground v.1.13,2013-04-06 00:20:00,
2013-04-05 20:25:00,56.5,23.7,30.08,SW,223,2.0,2.0,28,0.00,,,0.00,Wunderground v.1.13,2013-04-06 00:25:00,
2013-04-05 20:35:00,56.0,23.3,30.08,West,281,2.0,8.0,28,0.00,,,0.00,Wunderground v.1.13,2013-04-06 00:35:00,
2013-04-05 20:40:00,55.9,23.2,30.08,West,263,2.0,8.0,28,0.00,,,0.00,Wunderground v.1.13,2013-04-06 00:40:00,
2013-04-05 20:45:00,55.6,23.8,30.09,West,263,1.0,8.0,29,0.00,,,0.00,Wunderground v.1.13,2013-04-06 00:45:00,
2013-04-05 20:50:00,55.4,22.8,30.09,WSW,250,2.0,8.0,28,0.00,,,0.00,Wunderground v.1.13,2013-04-06 00:50:00,
2013-04-05 20:55:00,55.3,23.5,30.09,WSW,247,3.0,3.0,29,0.00,,,0.00,Wunderground v.1.13,2013-04-06 00:55:00,
2013-04-05 21:00:00,55.1,24.2,30.09,WSW,246,2.0,2.0,30,0.00,,,0.00,Wunderground v.1.13,2013-04-06 01:00:00,
2013-04-05 21:05:00,55.0,23.3,30.09,West,263,1.0,8.0,29,0.00,,,0.00,Wunderground v.1.13,2013-04-06 01:05:00,
2013-04-05 21:10:00,54.8,23.9,30.09,West,263,1.0,8.0,30,0.00,,,0.00,Wunderground v.1.13,2013-04-06 01:10:00,
2013-04-05 21:15:00,54.7,23.8,30.10,WSW,254,1.0,8.0,30,0.00,,,0.00,Wunderground v.1.13,2013-04-06 01:15:00,
2013-04-05 21:20:00,54.5,23.7,30.10,WSW,250,1.0,8.0,30,0.00,,,0.00,Wunderground v.1.13,2013-04-06 01:20:00,
2013-04-05 21:25:00,54.4,24.4,30.10,WSW,244,1.0,8.0,31,0.00,,,0.00,Wunderground v.1.13,2013-04-06 01:25:00,
2013-04-05 21:35:00,53.9,25.4,30.11,WSW,253,1.0,8.0,33,0.00,,,0.00,Wunderground v.1.13,2013-04-06 01:35:00,
2013-04-05 21:40:00,53.9,24.7,30.11,WSW,253,1.0,1.0,32,0.00,,,0.00,Wunderground v.1.13,2013-04-06 01:40:00,
2013-04-05 21:45:00,53.8,25.3,30.11,West,260,0.0,8.0,33,0.00,,,0.00,Wunderground v.1.13,2013-04-06 01:45:00,
2013-04-05 21:50:00,53.6,25.2,30.11,West,267,0.0,8.0,33,0.00,,,0.00,Wunderground v.1.13,2013-04-06 01:50:00,
2013-04-05 21:55:00,53.5,25.8,30.11,WSW,240,1.0,1.0,34,0.00,,,0.00,Wunderground v.1.13,2013-04-06 01:55:00,
2013-04-05 22:00:00,53.3,25.6,30.12,WSW,243,0.0,8.0,34,0.00,,,0.00,Wunderground v.1.13,2013-04-06 02:00:00,
2013-04-05 22:10:00,53.1,25.4,30.12,WSW,243,0.0,8.0,34,0.00,,,0.00,Wunderground v.1.13,2013-04-06 02:10:00,
2013-04-05 22:15:00,52.9,25.3,30.12,SW,230,0.0,8.0,34,0.00,,,0.00,Wunderground v.1.13,2013-04-06 02:15:00,
2013-04-05 22:20:00,52.9,26.0,30.12,SW,230,0.0,8.0,35,0.00,,,0.00,Wunderground v.1.13,2013-04-06 02:20:00,
2013-04-05 22:25:00,52.8,25.9,30.12,SW,230,0.0,8.0,35,0.00,,,0.00,Wunderground v.1.13,2013-04-06 02:25:00,
2013-04-05 22:30:00,52.6,25.7,30.13,SW,230,0.0,8.0,35,0.00,,,0.00,Wunderground v.1.13,2013-04-06 02:30:00,
2013-04-05 22:45:00,52.3,24.7,30.13,SW,227,0.0,8.0,34,0.00,,,0.00,Wunderground v.1.13,2013-04-06 02:45:00,
2013-04-05 22:50:00,52.2,25.3,30.13,SW,227,0.0,8.0,35,0.00,,,0.00,Wunderground v.1.13,2013-04-06 02:50:00,
2013-04-05 22:55:00,52.2,24.6,30.13,West,265,0.0,8.0,34,0.00,,,0.00,Wunderground v.1.13,2013-04-06 02:55:00,
2013-04-05 23:00:00,52.0,24.5,30.13,West,281,1.0,8.0,34,0.00,,,0.00,Wunderground v.1.13,2013-04-06 03:00:00,
2013-04-05 23:05:00,51.9,24.4,30.13,West,281,0.0,8.0,34,0.00,,,0.00,Wunderground v.1.13,2013-04-06 03:05:00,
2013-04-05 23:15:00,51.7,24.2,30.12,West,281,0.0,8.0,34,0.00,,,0.00,Wunderground v.1.13,2013-04-06 03:15:00,
2013-04-05 23:20:00,51.6,24.1,30.12,West,281,0.0,8.0,34,0.00,,,0.00,Wunderground v.1.13,2013-04-06 03:20:00,
2013-04-05 23:30:00,51.1,23.0,30.13,West,281,0.0,8.0,33,0.00,,,0.00,Wunderground v.1.13,2013-04-06 03:30:00,
2013-04-05 23:35:00,51.0,22.9,30.13,West,281,0.0,8.0,33,0.00,,,0.00,Wunderground v.1.13,2013-04-06 03:35:00,
2013-04-05 23:40:00,50.8,22.7,30.13,West,280,0.0,8.0,33,0.00,,,0.00,Wunderground v.1.13,2013-04-06 03:40:00,
2013-04-05 23:45:00,50.7,22.6,30.13,West,280,0.0,8.0,33,0.00,,,0.00,Wunderground v.1.13,2013-04-06 03:45:00,
2013-04-05 23:50:00,50.5,22.4,30.13,West,280,0.0,8.0,33,0.00,,,0.00,Wunderground v.1.13,2013-04-06 03:50:00,
2013-04-05 23:55:00,50.5,23.1,30.13,West,280,0.0,8.0,34,0.00,,,0.00,Wunderground v.1.13,2013-04-06 03:55:00,